DW5988 Weather Reports


time (UTC)temp
C
wind
direction
speed
KPH
gust
KPH
rain 1hr
cm
rain 24hr
cm
rain mn
cm
humidity
%
barometer
mb
20260504034305 10 10 14.5 20.9 0.00 0.00 0.00 50 1010.7
20260504033805 10 3 16.1 20.9 0.00 0.00 0.00 50 1010.8
20260504032804 10 9 16.1 22.5 0.00 0.00 0.00 49 1010.3
20260504031304 11 2 19.3 22.5 0.00 0.00 0.00 46 1010.1
20260504030804 11 11 20.9 27.4 0.00 0.00 0.00 46 1010.0
20260504025804 11 10 25.7 32.2 0.00 0.00 0.00 44 1009.9
20260504025304 11 11 25.7 29.0 0.00 0.00 0.00 44 1009.6
20260504024804 11 0 24.1 33.8 0.00 0.00 0.00 43 1009.6
20260504023804 12 15 25.7 37.0 0.00 0.00 0.00 43 1009.4
20260504023304 12 9 24.1 38.6 0.00 0.00 0.00 43 1009.3
20260504022305 12 6 29.0 40.2 0.00 0.00 0.00 40 1009.1
20260504020804 12 11 27.4 41.8 0.00 0.00 0.00 39 1008.8
20260504020304 13 6 30.6 40.2 0.00 0.00 0.00 38 1008.9
20260504015804 13 0 29.0 40.2 0.00 0.00 0.00 38 1008.8
20260504015304 13 0 30.6 41.8 0.00 0.00 0.00 38 1008.8
20260504014804 13 1 27.4 37.0 0.00 0.00 0.00 39 1008.6
20260504014304 13 4 29.0 41.8 0.00 0.00 0.00 38 1008.6
20260504012304 13 4 32.2 40.2 0.00 0.00 0.00 36 1008.2
20260504011804 13 6 35.4 41.8 0.00 0.00 0.00 35 1008.1
20260504011304 13 5 32.2 38.6 0.00 0.00 0.00 37 1008.0
20260504005804 14 13 27.4 38.6 0.00 0.00 0.00 37 1008.0
20260504005305 14 355 29.0 41.8 0.00 0.00 0.00 37 1008.0
20260504004303 14 19 27.4 41.8 0.00 0.00 0.00 37 1008.0
20260504003804 14 12 29.0 40.2 0.00 0.00 0.00 37 1008.0
20260504003304 14 20 22.5 35.4 0.00 0.00 0.00 37 1008.1
20260504002804 14 3 30.6 40.2 0.00 0.00 0.00 36 1008.0
20260504002304 14 13 32.2 45.1 0.00 0.00 0.00 36 1008.0
20260504001805 14 19 30.6 41.8 0.00 0.00 0.00 36 1007.8
20260504001304 14 23 32.2 38.6 0.00 0.00 0.00 35 1007.6
20260504000303 15 16 24.1 41.8 0.00 0.00 0.00 36 1007.6
20260503235804 15 30 30.6 41.8 0.00 0.00 0.00 34 1007.4
20260503235304 15 31 33.8 48.3 0.00 0.00 0.00 35 1007.5
20260503234803 15 19 33.8 45.1 0.00 0.00 0.00 34 1007.5
20260503234304 16 29 32.2 51.5 0.00 0.00 0.00 33 1007.4
20260503233304 16 26 27.4 41.8 0.00 0.00 0.00 33 1007.6
20260503232305 17 22 29.0 41.8 0.00 0.00 0.00 32 1007.5
20260503231304 17 24 32.2 41.8 0.00 0.00 0.00 30 1007.5
20260503224804 18 5 29.0 38.6 0.00 0.00 0.00 32 1007.1
20260503223804 18 5 29.0 46.7 0.00 0.00 0.00 31 1007.1
20260503223304 18 349 33.8 40.2 0.00 0.00 0.00 31 1006.9
20260503222804 18 345 29.0 40.2 0.00 0.00 0.00 30 1006.9
20260503222304 18 344 29.0 38.6 0.00 0.00 0.00 30 1006.9
20260503220804 18 346 33.8 41.8 0.00 0.00 0.00 29 1006.8
20260503215304 18 335 27.4 41.8 0.00 0.00 0.00 28 1007.0
20260503214804 18 346 29.0 37.0 0.00 0.00 0.00 27 1006.9
20260503214303 18 332 29.0 41.8 0.00 0.00 0.00 28 1006.9
20260503213804 18 329 33.8 46.7 0.00 0.00 0.00 28 1007.0
20260503213304 18 333 29.0 40.2 0.00 0.00 0.00 28 1007.0
20260503212305 19 338 27.4 37.0 0.00 0.00 0.00 27 1007.3
20260503211804 19 335 25.7 38.6 0.00 0.00 0.00 27 1007.2
20260503210804 18 346 27.4 40.2 0.00 0.00 0.00 29 1007.2
20260503210304 18 344 32.2 41.8 0.00 0.00 0.00 28 1007.1
20260503205304 18 352 33.8 49.9 0.00 0.00 0.00 29 1007.1
20260503203805 19 327 30.6 41.8 0.00 0.00 0.00 29 1007.3
20260503203304 18 321 22.5 41.8 0.00 0.00 0.00 29 1007.3
20260503202804 18 329 22.5 38.6 0.00 0.00 0.00 29 1007.3
20260503201804 18 327 24.1 33.8 0.00 0.00 0.00 30 1007.4
20260503201304 18 320 22.5 33.8 0.00 0.00 0.00 32 1007.4
20260503195805 18 335 22.5 35.4 0.00 0.00 0.00 31 1007.3
20260503193304 18 352 30.6 45.1 0.00 0.00 0.00 32 1007.1
20260503192305 19 306 25.7 40.2 0.00 0.00 0.00 31 1007.2
20260503191804 19 317 25.7 35.4 0.00 0.00 0.00 29 1007.0
20260503191304 19 317 32.2 41.8 0.00 0.00 0.00 29 1007.0
20260503185804 20 341 29.0 40.2 0.00 0.00 0.00 28 1006.9
20260503184803 19 320 24.1 41.8 0.00 0.00 0.00 29 1007.0
20260503184304 19 323 27.4 45.1 0.00 0.00 0.00 29 1007.2
20260503182305 18 301 22.5 53.1 0.00 0.00 0.00 30 1007.1
20260503181804 18 295 32.2 56.3 0.00 0.00 0.00 29 1007.2
20260503175805 18 296 22.5 41.8 0.00 0.00 0.00 30 1007.4
20260503175304 18 312 24.1 48.3 0.00 0.00 0.00 30 1007.6
20260503174804 18 289 40.2 57.9 0.00 0.00 0.00 30 1007.6
20260503173304 18 296 32.2 49.9 0.00 0.00 0.00 31 1007.8
20260503172803 18 291 33.8 53.1 0.00 0.00 0.00 31 1007.9
20260503172305 18 283 38.6 48.3 0.00 0.00 0.00 32 1007.9
20260503170804 18 289 25.7 41.8 0.00 0.00 0.00 32 1008.0
20260503170303 18 326 25.7 40.2 0.00 0.00 0.00 32 1008.1
20260503140304 10 274 20.9 27.4 0.00 0.00 0.00 49 1009.1
20260503131304 8 268 16.1 20.9 0.00 0.00 0.00 57 1009.0
20260503090304 10 275 19.3 24.1 0.00 0.00 0.00 57 1009.1
20260503081304 11 249 19.3 29.0 0.00 0.00 0.00 56 1009.1
20260503080803 11 233 22.5 32.2 0.00 0.00 0.00 56 1009.0
20260503072804 11 229 14.5 20.9 0.00 0.00 0.00 60 1009.5
20260503072305 11 229 14.5 19.3 0.00 0.00 0.00 60 1009.5
20260503071804 11 231 12.9 20.9 0.00 0.00 0.00 60 1009.6
20260503071304 11 232 12.9 20.9 0.00 0.00 0.00 61 1009.8
20260503070304 10 224 11.3 16.1 0.00 0.00 0.00 61 1010.0
20260503054804 9 218 8.0 11.3 0.00 0.00 0.00 62 1010.4
20260503054303 9 217 6.4 9.7 0.00 0.00 0.00 61 1010.6
20260503053804 9 189 4.8 4.8 0.00 0.00 0.00 62 1010.6
20260503052804 8 180 4.8 9.7 0.00 0.00 0.00 65 1010.6
20260503052305 8 169 6.4 8.0 0.00 0.00 0.00 65 1010.7
20260503051804 8 169 4.8 8.0 0.00 0.00 0.00 64 1010.7
20260503045805 8 171 4.8 8.0 0.00 0.00 0.00 66 1010.9
20260503045305 8 171 1.6 8.0 0.00 0.00 0.00 65 1010.9
20260503044304 8 172 3.2 8.0 0.00 0.00 0.00 61 1010.9
20260503043304 8 183 4.8 8.0 0.00 0.00 0.00 63 1010.9
20260503042305 8 158 6.4 11.3 0.00 0.00 0.00 62 1011.0
20260503041805 8 208 9.7 11.3 0.00 0.00 0.00 62 1010.9
20260503041303 9 185 3.2 9.7 0.00 0.00 0.00 60 1010.8
20260503040304 10 224 11.3 14.5 0.00 0.00 0.00 61 1011.0